Home   Weather   Périgueux   Past weeks

Flag for France Past Weather in Périgueux, Aquitaine, France — Yesterday and Last 2 Weeks

Now
41 °F

Clear.


Feels Like: 39 °F
Forecast: 28 / 59 °F
Wind: 3 mph from Southwest

Location: Bergerac Airport

Current Time: Apr 27, 2017 at 10:56:22 pm

Latest Report: Apr 27, 2017 at 10:30 pm


Visibility: 10 mi

Pressure: 30.09 "Hg

Humidity: 76%

Dew Point: 34 °F

Location of PérigueuxLocation

Past Weather in Périgueux — Graph

°F

Périgueux Temperature Yesterday

Maximum temperature yesterday: 52 °F (at 3:30 pm)
Minimum temperature yesterday: 34 °F (at 11:30 pm)
Average temperature yesterday: 45 °F

High & Low Weather Summary for the Past Weeks

 TemperatureHumidityPressure
High79 °F (Apr 22, 5:30 pm)100% (Apr 13, 3:30 am)30.45 "Hg (Apr 13, 3:30 am)
Low28 °F (Apr 21, 5:30 am)12% (Apr 21, 5:00 pm)29.74 "Hg (Apr 25, 4:30 pm)
Average52 °F64%30.13 "Hg
* Reported Apr 12 9:00 pm — Apr 27 9:30 pm, Périgueux, Weather by CustomWeather, © 2017

Note: Actual official high and low records may vary slightly from our data, if they occured in-between our weather recording intervals... More about our weather records

Advertising

Périgueux Weather History for the Previous 24 Hours

Scroll right to see more
 ConditionsComfort  
Time TempWeatherWind HumidityBarometerVisibility
9:30 pm
Thu, Apr 27
43 °FClear.2 mph71%30.09 "Hg10 mi
9:00 pm46 °FClear.3 mph57%30.09 "Hg10 mi
8:30 pm50 °FSunny.3 mph50%30.07 "Hg10 mi
8:00 pm52 °FSunny.9 mph47%30.07 "Hg10 mi
7:30 pm52 °FPassing clouds.12 mph47%30.07 "HgN/A
7:00 pm52 °FSunny.10 mph41%30.07 "Hg10 mi
6:30 pm54 °FPassing clouds.12 mph41%30.07 "HgN/A
6:00 pm54 °FSunny.13 mph35%30.04 "Hg10 mi
5:30 pm54 °FPartly sunny.7 mph38%30.04 "HgN/A
5:00 pm54 °FPartly sunny.9 mph38%30.04 "HgN/A
4:30 pm54 °FPassing clouds.10 mph38%30.04 "HgN/A
4:00 pm55 °FPassing clouds.7 mph41%30.04 "HgN/A
3:30 pm55 °FPassing clouds.8 mph38%30.07 "HgN/A
3:00 pm54 °FPassing clouds.7 mph44%30.07 "HgN/A
2:30 pm52 °FSunny.10 mph44%30.07 "Hg10 mi
2:00 pm54 °FPassing clouds.12 mph44%30.07 "HgN/A
1:30 pm52 °FCloudy.10 mph47%30.07 "HgN/A
12:30 pm52 °FPartly sunny.9 mph50%30.07 "HgN/A
12:00 pm48 °FBroken clouds.7 mph58%30.07 "HgN/A
11:30 am50 °FPartly sunny.7 mph54%30.07 "Hg5 mi
11:00 am46 °FPassing clouds.3 mph76%30.07 "HgN/A
10:30 am45 °FSunny.2 mph87%30.07 "Hg10 mi
10:00 am39 °FPassing clouds.2 mph100%30.07 "HgN/A
9:30 am36 °FFog.No wind100%30.09 "Hg1 mi
9:00 am34 °FFog.No wind100%30.09 "Hg0 mi
8:30 am32 °FIce fog.No wind100%30.07 "Hg0 mi
8:00 am28 °FIce fog.No wind100%30.07 "Hg0 mi
7:30 am28 °FIce fog.No wind100%30.07 "Hg0 mi
6:30 am28 °FIce fog.No wind93%30.07 "Hg1 mi
5:30 am28 °FIce fog.No wind100%30.04 "Hg1 mi
5:00 am28 °FIce fog.No wind100%30.04 "Hg1 mi
4:30 am30 °FIce fog.No wind100%30.04 "Hg1 mi
3:30 am30 °FPassing clouds.No wind93%30.04 "Hg4 mi
3:00 am30 °FClear.1 mph100%30.04 "Hg5 mi
2:30 am30 °FClear.No wind100%30.04 "Hg5 mi
2:00 am32 °FClear.1 mph93%30.07 "Hg4 mi
1:30 am32 °FClear.1 mph93%30.07 "Hg4 mi
1:00 am34 °FClear.No wind93%30.07 "Hg10 mi
12:30 am32 °FClear.2 mph100%30.07 "Hg10 mi
11:30 pm
Wed, Apr 26
34 °FClear.1 mph93%30.04 "Hg10 mi
11:00 pm36 °FClear.No wind93%30.04 "Hg10 mi
10:30 pm37 °FClear.No wind93%30.04 "Hg10 mi
10:00 pm39 °FClear.3 mph81%30.04 "Hg10 mi
Weather by CustomWeather, © 2017

See weather overviewHow to use our weather pages